Location: Ward Pound Ridge Reservation
(41.2500°N, 73.6000°W)
Time: 05:14:57
(UTC-05:00)

Tiangong 2 - Pass Details

Date: 10 October 2017
Orbit: 386 x 390 km, 42.8° (Epoch: 14 December)

Event Time Altitude Azimuth Distance (km) Brightness Sun altitude
Exits shadow 05:33:08 38° 207° (SSW) 607 1.7 -17.3°
Maximum altitude 05:33:56 51° 158° (SSE) 498 1.6 -17.1°
Drops below altitude 10° 05:37:05 10° 81° (E) 1,426 5.3 -16.5°
Sets 05:39:12 0° 76° (ENE) 2,285 6.7 -16.1°
